DELTA 1 DEB, 5971

Orbit data source: Space-Track

DELTA 1 DEB, 5971 is space debris in SSO originally from a launch on Thu, 26 Jan 1967 UTC launched from the Air Force Western Test Range (AFWTR). Debris objects in space refer to the collection of defunct objects orbiting the Earth. Examples of debris include non-operational satellites, rocket bodies, and fragments generated from explosions, collisions, or faulty payload assembly.

Loading next visibility...
Identifier
5971, 1967-006E
Orbit
SSO
Last TLE update
3 days ago
Origin
Manufacturer
Unknown
Mission
Spacecraft
Bus & Motor
Unknown
Mass
Unknown
Launch date (UTC)
1967-01-26 (58 years ago)
Launch vehicle
Unknown
Launch site
Air Force Western Test Range (AFWTR)
Object type
Payload
Rocket body
Debris
Shape & HBR
Unknown
Radar Cross Section
Small (<0.1 m²)

Expand to show TLE details & history

TLE from 3 days ago
0 DELTA 1 DEB
1 05971U 67006E   25189.73673808 -.00000045  00000-0  21688-4 0  9997
2 05971 101.9200 114.1990 0112560 292.4773  94.5904 12.73468620717376
Epoch: 2025-07-08T17:40Z
TLE epoch observation values (Epoch: 2025-07-08T17:40:54.17Z)
Latitude
27.72792°
Longitude
-84.29309°
Altitude
1,378.922 km
Speed
7.168 km/s
True Right ascension
07h 11m 26s
True Declination
27° 35' 52"
Sunlit
Object was in daylight at epoch
Visualization orbit readout
Latitude
34.49942°
Longitude
-83.38907°
Altitude
1,398.619 km
Speed
7.151 km/s
Apparent Right ascension
09h 15m 49s
Apparent Declination
1° 56' 44"
Sunlit
Object is in daylight
Visualization observer readout
Local Sidereal Time
00:00:35
Azimuth
52.305° ENE
Elevation
-33.714°
Doppler factor
1
Orbital elements
Apogee altitude
1,452.529 km
Perigee altitude
1,278.207 km
Semi-major axis
7,743.505 km
Eccentricity
0.01126
Inclination
101.92°
RAAN
114.199°
Arg. of periapsis
292.4773°
True anomaly
Unknown
Mean anomaly
94.5904°
Eccentric anomaly
Unknown
Mean motion
3.1852 °/min
Orbital period
113.02 mins
BSTAR
0.000021688
Loading maneuver chart data...
Loading SW <> Apogee altitude chart data...
Loading historical data...
Loading historical data...
Loading historical data...
Loading historical data...
Loading historical data...
Loading historical data...
Loading historical data...
Other satellites on launch #6 in the year 1967 (1967-01-26 UTC)

DELTA 1 DEB Visibility forecast

Observer location: undefined°, undefined°

Span
Click to sort rows by Start time (UTC) header in descending order
Start Az.
Max El. time (UTC)
Max El. Az.
Max El.
End time (UTC)
End Az.
13 mins2025-07-11 17:19:30.924Z112.125° ESE2025-07-11 17:25:30.924Z62.05° ENE26.531°2025-07-11 17:32:30.924Z1.489° NNE
13 mins2025-07-11 19:10:30.924Z178.835° S2025-07-11 19:16:30.924Z261.466° W41.86°2025-07-11 19:23:30.924Z334.849° NNW
13 mins2025-07-12 07:01:30.924Z37.44° NE2025-07-12 07:07:30.924Z92.869° ESE31.67°2025-07-12 07:14:30.924Z161.701° S
14 mins2025-07-12 08:52:30.924Z3.669° NNE2025-07-12 08:58:30.924Z306.095° NW36.834°2025-07-12 09:06:30.924Z226.369° WSW
|